sat.trackr.live / text

‹ back to catalog

STARLINK-31398

NORAD 59415 · 2024-064T

PAYLOAD ACTIVE UNKNOWN

§ Identity

Operator
Country
US
Launch date
2024-04-05
Launch site
AFETR
Launch vehicle
Mass (kg)
RCS (m²)

Purposes: comms

External: N2YO · Heavens-Above · Gunter

§ Orbital elements

Epoch: 2026-09-21T15:10:39.870624Z

Period
94.27 min
Inclination
43.0022°
Eccentricity
0.0001233
Mean motion
15.27579056 rev/d
Perigee alt
482.2 km
Apogee alt
483.9 km
Semi-major
6,861.2 km
B*
2.7297e-5
RAAN
29.5039°
Arg perigee
268.9028°
Mean anomaly
91.1682°
Rev number
13,919

§ Raw data

STARLINK-313981 59415U 24064T   26264.63240591  .00000489  00000+0  27297-4 0  99912 59415  43.0022  29.5039 0001233 268.9028  91.1682 15.27579056139196

JSON: /api/v1/satellites/59415 · /tle

For live sub-satellite position, see the globe view (requires WebGL).

§ Visibility from observer

Set your observer location to see the next 7 days of passes ≥ 10°. The values pass through the URL so the page stays shareable.

No JS? Fill the form by hand. The geolocation button needs JavaScript.